Fullerton, CA

7:46 PM PDT on August 16, 2017 (GMT -0700)
Fullerton Municipal

Weather History for KFUL - April, 2013

Change the Weather History Date:

Monday, April 29, 2013

  Actual Average Record
Temperature  
Mean Temperature 68 °F 65 °F  
Max Temperature 74 °F 74 °F 97 °F (2015)
Min Temperature 61 °F 55 °F 47 °F (1999)
Degree Days  
Heating Degree Days 0 2  
Month to date heating degree days 11 100  
Since 1 July heating degree days 726 1192  
Cooling Degree Days 3 2  
Month to date cooling degree days 79 31  
Year to date cooling degree days 130 53  
Growing Degree Days 17 (Base 50)    
Moisture  
Dew Point 54 °F    
Average Humidity 67    
Maximum Humidity 84    
Minimum Humidity 49    
Precipitation  
Precipitation 0.00 in 0.02 in 0.56 in (1951)
Month to date precipitation 0.04 0.85  
Year to date precipitation 2.07 9.29  
Since 1 July precipitation 5.38  
Snow  
Snow 0.00 in - - ()
Month to date snowfall 0.0  
Year to date snowfall 0.0  
Snow Depth 0.00 in    
Sea Level Pressure  
Sea Level Pressure 29.86 in    
Wind  
Wind Speed 4 mph (South)    
Max Wind Speed 10 mph    
Max Gust Speed 14 mph    
Visibility 9 miles    
Events      
T = Trace of Precipitation, MM = Missing Value Source: NWS Daily Summary

Daily Weather History Graph

Daily Weather History Graph

Search for Another Location

Airport or City:

Trip Planner

Search our weather history database for the weather conditions in past years. The results will help you decide how hot, cold, wet, or windy it might be!

Date:

Astronomy

Apr. 29, 2013 Rise Set
Actual Time 6:04 AM PDT 7:34 PM PDT
Civil Twilight 5:38 AM PDT 8:00 PM PDT
Nautical Twilight 5:06 AM PDT 8:32 PM PDT
Astronomical Twilight 4:33 AM PDT 9:06 PM PDT
Moon 11:59 PM PDT (4/29) 9:35 AM PDT (4/29)
Length of Visible Light 14h 22m
Length of Day
13h 29m
Waning Gibbous, 79% of the Moon is Illuminated
Apr 29
Waning Gibbous
May 2
Last Quarter
May 9
New
May 17
First Quarter
May 24
Full

Hourly Weather History & Observations

Time (PDT) Temp. Dew Point Humidity Pressure Visibility Wind Dir Wind Speed Gust Speed Precip Events Conditions
12:53 AM 62.1 °F 55.0 °F 78% 29.90 in 7.0 mi SSW 4.6 mph - N/A   Overcast
1:53 AM 61.0 °F 55.0 °F 81% 29.89 in 7.0 mi South 3.5 mph - N/A   Overcast
2:53 AM 61.0 °F 55.0 °F 81% 29.88 in 7.0 mi Variable 4.6 mph - N/A   Overcast
3:53 AM 61.0 °F 55.0 °F 81% 29.87 in 6.0 mi Calm Calm - N/A   Haze
4:53 AM 62.1 °F 55.0 °F 78% 29.87 in 8.0 mi Calm Calm - N/A   Overcast
5:53 AM 62.1 °F 55.0 °F 78% 29.88 in 10.0 mi Calm Calm - N/A   Overcast
6:53 AM 62.1 °F 54.0 °F 75% 29.89 in 8.0 mi ESE 4.6 mph - N/A   Overcast
7:53 AM 62.1 °F 54.0 °F 75% 29.89 in 8.0 mi South 5.8 mph - N/A   Overcast
8:53 AM 63.0 °F 53.1 °F 70% 29.90 in 8.0 mi SE 4.6 mph - N/A   Overcast
9:53 AM 64.0 °F 53.1 °F 67% 29.90 in 9.0 mi Variable 3.5 mph - N/A   Overcast
10:02 AM 64.4 °F 53.6 °F 68% 29.90 in 9.0 mi Calm Calm - N/A   Overcast
10:53 AM 68.0 °F 54.0 °F 61% 29.90 in 9.0 mi Calm Calm - N/A   Overcast
11:18 AM 69.8 °F 53.6 °F 56% 29.90 in 9.0 mi SW 4.6 mph - N/A   Scattered Clouds
11:53 AM 70.0 °F 54.0 °F 57% 29.88 in 9.0 mi SW 6.9 mph - N/A   Clear
12:53 PM 72.0 °F 54.0 °F 53% 29.86 in 10.0 mi SSW 8.1 mph - N/A   Clear
1:53 PM 73.0 °F 54.0 °F 51% 29.85 in 10.0 mi Variable 4.6 mph - N/A   Clear
2:53 PM 73.0 °F 54.0 °F 51% 29.83 in 10.0 mi SW 6.9 mph - N/A   Clear
3:53 PM 71.1 °F 53.1 °F 53% 29.81 in 10.0 mi South 6.9 mph - N/A   Clear
4:53 PM 72.0 °F 54.0 °F 53% 29.80 in 10.0 mi SSW 6.9 mph - N/A   Clear
5:53 PM 70.0 °F 53.1 °F 55% 29.78 in 10.0 mi SW 5.8 mph - N/A   Clear
6:53 PM 66.9 °F 53.1 °F 61% 29.78 in 10.0 mi South 6.9 mph - N/A   Clear
7:53 PM 64.0 °F 53.1 °F 67% 29.80 in 10.0 mi SSW 6.9 mph - N/A   Clear
8:53 PM 62.1 °F 53.1 °F 72% 29.83 in 10.0 mi South 6.9 mph - N/A   Partly Cloudy
9:08 PM 62.6 °F 53.6 °F 72% 29.84 in 10.0 mi SSE 5.8 mph - N/A   Mostly Cloudy
9:53 PM 62.1 °F 53.1 °F 72% 29.84 in 10.0 mi SSE 6.9 mph - N/A   Overcast
10:53 PM 63.0 °F 53.1 °F 70% 29.85 in 10.0 mi South 5.8 mph - N/A   Overcast
11:53 PM 62.1 °F 52.0 °F 70% 29.85 in 10.0 mi SSE 4.6 mph - N/A   Overcast